Regional Weather Roundup
Issued by NWS

Home | Current Version | Previous Version | Text Only | Print | Product List | Glossary On
Versions: 1 2 3 4 5 6 7 8 9 10 11 12 13 14 15 16 17 18 19 20 21 22 23 24 25 26 27 28
000
ASUS46 KSEW 230810
RWRWA

WASHINGTON REGIONAL WEATHER ROUNDUP
NATIONAL WEATHER SERVICE SEATTLE WA
100 AM PDT WED APR 23 2014

NOTE:"FAIR" INDICATES FEW OR NO CLOUDS BELOW 12,000 FEET WITH NO
SIGNIFICANT WEATHER AND/OR OBSTRUCTIONS TO VISIBILITY.

WAZ505-507>509-230900-
SEATTLE, TACOMA, EVERETT, AND VICINITY

CITY           SKY/WX    TMP DP  RH WIND       PRES   REMARKS
EVERETT        CLOUDY    44  41  89 S10       29.86S
BOEING FIELD   CLOUDY    47  42  83 S8        29.89R
RENTON         CLOUDY    46  43  89 SE8       29.90R
SEATAC AIRPORT LGT RAIN  44  41  89 S10       29.89R
JBLM-MCCHORD   LGT RAIN  44  43  99 S12       29.90S
PUYALLUP       LGT RAIN  43  41  93 S5        29.91R
JBLM-FT LEWIS  LGT RAIN  44  43  99 S7        29.90R
TACOMA NARROWS CLOUDY    43  41  93 MISG      29.89R
$$

WAZ001-503-506-510-514-515-230900-
NORTH INTERIOR

CITY           SKY/WX    TMP DP  RH WIND       PRES   REMARKS
BELLINGHAM     CLOUDY    47  39  74 SE17      29.83S
FRIDAY HARBOR  MOCLDY    43  41  93 CALM      29.85R
EASTSOUND      MOCLDY    46  43  87 S6        29.82R
PORT ANGELES   MOCLDY    40  38  93 W3        29.84R
NAS WHIDBEY    CLOUDY    48  40  73 SE13      29.85R
BURLINGTON     CLOUDY    45  41  87 SE12      29.87R
$$

WAZ020-022-039-040-504-511-512-230900-
SOUTHWEST INTERIOR

CITY           SKY/WX    TMP DP  RH WIND       PRES   REMARKS
SHELTON        MOCLDY    43  40  89 S5        29.86S
OLYMPIA        LGT RAIN  43  41  93 S6        29.90R
CHEHALIS       LGT RAIN  43  41  93 S5        29.93R
KELSO          CLOUDY    46  43  87 S6        29.97R
VANCOUVER      CLOUDY    47  42  83 VRB5      29.96R
SCAPPOOSE, OR  CLOUDY    47  43  86 S6        29.94R
PORTLAND, OR   CLOUDY    47  43  86 S13       29.97R
$$

WAZ021-516-517-230900-
WASHINGTON COAST

CITY           SKY/WX    TMP DP  RH WIND       PRES   REMARKS
FORKS          LGT RAIN  43  42  97 SW5       29.82S
HOQUIAM        CLOUDY    49  45  86 S10       29.86F
ASTORIA, OR    RAIN      46  42  86 SW9       29.90R FOG
$$

WAZ019-023-024-040-518-519-230900-
CASCADE MOUNTAINS AND COLUMBIA GORGE

CITY           SKY/WX    TMP DP  RH WIND       PRES   REMARKS
STAMPEDE PASS  NOT AVBL
TROUTDALE, OR  LGT RAIN  48  42  80 SW13G23   29.96R
THE DALLES, OR MOCLDY    43  38  82 E3        29.95R
$$

WAZ026-027-041>044-520-521-230900-
EAST SLOPES

CITY           SKY/WX    TMP DP  RH WIND       PRES   REMARKS
OMAK           MOCLDY    37  25  61 W3        29.80R
WENATCHEE      MOCLDY    41  28  60 CALM      29.83S
ELLENSBURG     MOCLDY    33  29  85 NE3       29.84S
YAKIMA         MOCLDY    45  34  65 S5        29.85S
$$

WAZ028-034-035-230900-
COLUMBIA BASIN

CITY           SKY/WX    TMP DP  RH WIND       PRES   REMARKS
EPHRATA        CLOUDY    39  32  76 SW10      29.83S
MOSES LAKE     MOCLDY    44  31  60 S5        29.84S
HANFORD        NOT AVBL
PASCO          MOCLDY    48  35  60 SW14      29.91S
HERMISTON, OR  CLOUDY    41  35  79 S5        29.93S
$$

WAZ036>038-230900-
NORTHEAST WASHINGTON

CITY           SKY/WX    TMP DP  RH WIND       PRES   REMARKS
SPOKANE GEIGER CLEAR     37  25  61 SW12      29.81S
SPOKANE FELTS  CLEAR     34  29  82 CALM      29.83R
FAIRCHILD AFB  CLEAR     34  25  69 S9        29.81R
COEURDALENE,ID CLEAR     34  32  93 S7        29.83R
DEER PARK      CLEAR     29  26  89 S3        29.81R
$$

WAZ029>033-230900-
SOUTHEAST WASHINGTON

CITY           SKY/WX    TMP DP  RH WIND       PRES   REMARKS
PULLMAN        CLEAR     38  29  70 W10       29.89R
LEWISTON, ID   CLEAR     44  27  51 SW7       29.89S
WALLA WALLA    CLEAR     42  33  70 S9        29.93S
PENDLETON, OR  MOCLDY    40  32  73 S5        29.92S
$$



USA.gov is the U.S. government's official web portal to all federal, state and local government web resources and services.